Weather History for Miramar MCAS, CA

Change the Weather History Date:

Wednesday, February 26, 2014

  Actual Average Record
Temperature  
Mean Temperature 57 °F -  
Max Temperature 66 °F 61 °F 82 °F (2002)
Min Temperature 48 °F 44 °F 37 °F (2013)
Degree Days  
Heating Degree Days 8    
Growing Degree Days 7 (Base 50)    
Moisture  
Dew Point 48 °F    
Average Humidity 70    
Maximum Humidity 93    
Minimum Humidity 47    
Precipitation  
Precipitation 0.00 in - - ()
Sea Level Pressure  
Sea Level Pressure 30.05 in    
Wind  
Wind Speed 3 mph (SSE)    
Max Wind Speed 10 mph    
Max Gust Speed -    
Visibility 10 miles    
Events      
Averages and records for this station are not official NWS values.
T = Trace of Precipitation, MM = Missing Value Source: NWS Daily Summary

Daily Weather History Graph

Daily Weather History Graph

Search for Another Location

Airport:

Trip Planner

Search our weather history database for the weather conditions in past years. The results will help you decide how hot, cold, wet, or windy it might be!

Date:

Astronomy

Feb. 26, 2014 Rise Set
Actual Time 6:19 AM PST 5:43 PM PST
Civil Twilight 5:54 AM PST 6:08 PM PST
Nautical Twilight 5:26 AM PST 6:36 PM PST
Astronomical Twilight 4:57 AM PST 7:05 PM PST
Moon 4:02 AM PST (2/26) 3:09 PM PST (2/26)
Length of Visible Light 12h 13m
Length of Day
11h 23m
Waning Crescent, 9% of the Moon is Illuminated
Feb 26
Waning Crescent
Mar 1
New
Mar 8
First Quarter
Mar 16
Full
Mar 23
Last Quarter

Hourly Weather History & Observations

Time (PST) Temp. Dew Point Humidity Pressure Visibility Wind Dir Wind Speed Gust Speed Precip Events Conditions
12:55 AM 48.0 °F 46.0 °F 93% 30.04 in 10.0 mi Calm Calm - N/A   Partly Cloudy
1:52 AM 53.6 °F 46.4 °F 77% 30.05 in 10.0 mi Calm Calm - N/A   Mostly Cloudy
1:55 AM 53.1 °F 46.9 °F 80% 30.04 in 10.0 mi Calm Calm - N/A   Mostly Cloudy
3:55 AM 55.0 °F 48.9 °F 80% 30.04 in 10.0 mi Calm Calm - N/A   Overcast
4:55 AM 55.9 °F 48.9 °F 77% 30.05 in 10.0 mi Calm Calm - N/A   Mostly Cloudy
5:55 AM 55.9 °F 48.0 °F 75% 30.06 in 10.0 mi East 3.5 mph - N/A   Mostly Cloudy
6:10 AM 55.9 °F 48.0 °F 75% 30.07 in 10.0 mi East 3.5 mph - N/A   Mostly Cloudy
6:55 AM 57.0 °F 48.0 °F 72% 30.08 in 10.0 mi ESE 3.5 mph - N/A   Mostly Cloudy
7:55 AM 59.0 °F 48.9 °F 69% 30.08 in 10.0 mi East 8.1 mph - N/A   Mostly Cloudy
8:55 AM 62.1 °F 46.9 °F 58% 30.07 in 10.0 mi SE 5.8 mph - N/A   Mostly Cloudy
9:55 AM 64.0 °F 45.0 °F 50% 30.06 in 10.0 mi East 5.8 mph - N/A   Mostly Cloudy
10:55 AM 64.9 °F 44.1 °F 47% 30.04 in 10.0 mi South 6.9 mph - N/A   Mostly Cloudy
11:55 AM 66.0 °F 45.0 °F 47% 30.05 in 10.0 mi SW 8.1 mph - N/A   Mostly Cloudy
12:55 PM 64.9 °F 48.0 °F 54% 30.04 in 10.0 mi WSW 9.2 mph - N/A   Mostly Cloudy
1:55 PM 64.9 °F 48.0 °F 54% 30.02 in 7.0 mi WSW 9.2 mph - N/A   Mostly Cloudy
2:55 PM 66.0 °F 48.9 °F 54% 30.01 in 10.0 mi West 8.1 mph - N/A   Scattered Clouds
3:55 PM 64.9 °F 48.9 °F 56% 30.02 in 10.0 mi West 10.4 mph - N/A   Mostly Cloudy
4:55 PM 62.1 °F 48.9 °F 62% 30.02 in 10.0 mi West 5.8 mph - N/A   Mostly Cloudy
5:55 PM 59.0 °F 50.0 °F 72% 30.03 in 10.0 mi WSW 3.5 mph - N/A   Mostly Cloudy
6:55 PM 55.9 °F 48.9 °F 77% 30.04 in 10.0 mi SW 4.6 mph - N/A   Partly Cloudy
7:55 PM 54.0 °F 48.0 °F 80% 30.06 in 10.0 mi Calm Calm - N/A   Scattered Clouds
8:55 PM 53.1 °F 48.0 °F 83% 30.05 in 10.0 mi East 6.9 mph - N/A   Mostly Cloudy
9:55 PM 54.0 °F 48.9 °F 83% 30.03 in 10.0 mi East 5.8 mph - N/A   Partly Cloudy
10:55 PM 53.1 °F 48.9 °F 86% 30.04 in 10.0 mi ENE 3.5 mph - N/A   Partly Cloudy
11:55 PM 55.0 °F 50.0 °F 83% 30.04 in 10.0 mi East 4.6 mph - N/A   Mostly Cloudy